Theta_e
342 339 339 339 340 341 343 340 341 342 340 338 335 335 336 336 335 334 331 328 330 332 331 331 340 339 338 334 334 335 336 340 340 339 339 336 335 339 342 342 341 341 340 340 339 338 337 337 336 335 334 335 334 334 334 333 332 332 333 332 331 331 331 330 330 331 331 331 331 332 332 333 333 334 334 334 335 335 335 336 337 338 338 338 338
341 342 338 339 341 341 342 342 342 342 340 337 336 335 335 334 333 333 332 331 331 333 334 331 332 334 333 336 334 337 338 338 339 340 341 338 336 338 343 343 342 342 341 340 340 339 338 338 337 336 335 333 334 334 334 334 332 332 333 333 332 332 332 331 330 332 333 333 334 334 334 334 334 334 335 335 335 335 336 337 338 338 338 339 339
339 339 339 341 341 341 342 344 344 341 340 338 337 335 338 335 334 335 334 332 331 332 333 330 334 330 333 331 336 338 339 341 339 339 338 341 338 337 340 343 343 342 342 340 341 340 340 339 338 337 337 334 333 335 334 335 334 332 332 333 332 332 331 332 332 332 333 334 335 335 335 335 335 335 336 336 336 336 337 337 338 338 339 338 338
339 338 339 340 341 340 342 343 342 343 342 340 338 334 336 333 334 336 336 335 332 332 331 332 331 330 331 331 335 341 339 344 338 337 338 341 340 336 337 339 343 343 343 341 341 341 341 340 339 338 338 337 335 335 335 335 335 333 332 333 333 333 333 333 333 334 334 335 335 335 335 335 336 337 337 337 337 338 338 338 339 339 338 337 337
340 340 340 342 342 342 341 342 343 344 342 340 338 337 338 335 336 334 333 333 333 330 330 329 331 332 339 332 334 335 337 336 341 342 339 341 341 339 337 337 339 343 343 342 341 340 341 341 340 340 339 338 336 336 336 335 335 335 334 334 333 333 334 334 334 335 336 336 337 337 337 336 336 337 338 338 338 339 339 339 338 338 336 335 336
344 343 344 344 343 342 341 342 343 343 343 340 337 335 334 333 331 331 333 331 333 332 336 329 329 336 339 337 342 341 337 336 339 341 341 339 340 341 339 337 337 338 341 343 342 341 340 340 340 340 340 339 336 337 336 336 334 335 334 334 334 334 334 334 335 336 336 337 338 338 338 338 338 338 339 339 339 340 340 339 338 337 337 336 337
343 344 343 343 343 342 342 342 343 342 341 341 338 336 337 335 332 328 332 339 333 332 331 333 332 333 340 343 341 339 343 341 340 339 340 340 342 341 342 341 338 337 340 340 343 342 341 341 340 340 340 339 338 338 337 336 335 335 335 336 336 336 335 336 336 337 338 338 338 339 338 338 339 339 340 340 340 340 340 339 337 336 337 338 338
343 343 343 342 341 341 341 343 344 345 344 342 340 336 335 335 335 340 339 330 331 328 334 334 337 339 347 345 347 344 342 342 342 338 340 340 342 343 346 346 342 339 342 339 339 341 342 341 341 341 340 339 338 339 338 338 336 336 336 337 337 338 338 338 339 339 339 339 339 339 340 340 340 340 340 340 340 340 340 340 340 337 336 337 338
342 343 343 341 341 340 342 343 345 345 344 341 339 338 336 332 340 341 337 333 325 324 327 339 341 342 344 345 344 347 343 342 341 341 342 339 340 341 340 343 346 346 341 340 337 337 341 342 342 341 342 340 340 339 339 338 338 337 337 338 338 338 338 339 341 341 341 341 341 341 341 341 341 340 340 340 340 340 340 340 340 339 339 338 339
342 343 343 341 341 340 342 344 343 343 342 341 339 340 337 337 338 337 332 330 326 323 332 338 340 342 342 343 345 345 343 344 345 346 339 337 342 340 341 341 344 344 344 342 338 337 337 341 342 342 342 341 341 340 340 340 339 339 339 339 339 339 339 339 340 341 343 342 341 341 341 341 340 341 341 341 341 341 341 341 339 339 339 338 337
343 343 342 340 340 340 340 342 341 341 340 340 338 339 338 338 341 344 346 342 338 341 341 340 341 340 341 342 344 344 347 346 343 341 339 337 340 340 343 345 344 341 342 343 341 340 339 336 338 339 339 341 342 341 340 341 341 340 341 341 340 341 341 340 341 340 340 340 341 341 341 341 342 341 341 341 341 340 340 340 341 340 339 337 337
343 343 340 338 338 338 339 340 340 340 338 337 337 338 337 338 338 339 340 341 339 343 342 342 342 340 342 343 344 344 343 345 344 341 342 343 342 341 340 344 340 339 341 342 342 342 342 336 337 336 335 339 342 342 342 341 341 341 341 341 341 341 341 341 341 341 340 340 341 341 341 341 342 341 342 341 341 340 341 341 341 340 339 339 337
342 339 337 338 337 337 337 337 340 340 340 338 339 340 339 340 340 339 338 338 338 343 343 343 339 339 343 341 343 344 344 344 342 340 339 343 343 340 339 341 339 339 340 342 343 343 344 340 335 335 336 336 340 342 342 342 342 342 342 341 341 342 342 341 340 341 341 341 342 342 342 342 342 342 342 342 341 341 341 341 341 340 340 339 339
342 339 338 337 335 335 335 334 337 340 341 341 342 341 341 338 338 337 339 338 336 339 343 338 335 333 332 334 337 342 342 341 339 339 339 340 341 343 344 338 341 341 341 342 343 344 343 344 341 341 346 346 338 337 339 340 341 342 342 342 341 342 341 342 338 337 339 341 341 341 341 342 342 342 341 342 342 342 342 342 342 341 341 341 340
340 339 339 338 338 337 336 337 338 341 341 340 340 339 340 337 337 336 337 339 338 342 338 338 334 335 338 333 328 328 335 338 341 341 340 341 340 341 342 341 337 340 343 344 343 343 344 345 345 344 345 343 342 338 337 337 337 340 341 342 342 342 342 340 340 340 341 341 342 342 342 342 342 341 341 341 342 342 342 342 342 341 341 341 339
341 342 342 340 339 336 335 336 339 342 340 339 339 340 340 337 336 338 339 334 335 334 341 336 338 333 327 327 329 328 323 327 331 336 338 339 341 344 341 340 342 341 341 339 340 340 339 342 342 343 341 343 343 342 342 342 342 341 342 342 342 342 342 341 341 342 341 341 341 341 341 342 341 341 341 341 341 342 342 342 342 342 341 340 339
344 343 342 342 340 338 336 337 339 341 341 340 339 339 340 339 339 339 337 333 330 332 334 337 336 337 336 329 326 323 323 330 329 336 341 338 337 344 344 344 340 342 341 340 339 339 341 341 341 342 341 342 343 341 341 340 341 346 342 342 342 342 341 341 341 342 342 341 340 341 341 341 341 340 340 341 340 341 342 342 342 342 341 340 340
342 342 342 343 341 340 339 339 341 342 341 340 341 341 339 339 340 338 336 336 332 331 330 336 336 338 339 342 337 329 326 330 329 324 335 339 339 342 342 344 343 343 338 338 336 337 339 338 337 341 342 344 343 342 341 341 343 343 341 340 343 342 341 340 342 342 341 342 341 341 341 339 339 337 337 339 340 341 343 342 341 341 340 340 339
342 341 341 341 342 341 341 342 342 341 343 341 339 339 339 339 340 337 336 337 335 330 330 330 336 335 339 340 338 337 336 331 325 327 322 332 339 339 340 341 343 339 338 337 338 336 339 337 336 339 341 342 342 341 339 340 341 342 344 342 341 341 342 343 342 342 341 341 340 339 339 338 338 337 337 338 340 341 341 341 340 340 340 339 339
342 341 342 340 339 340 341 341 341 341 341 340 340 340 339 340 340 339 337 335 334 332 330 333 330 331 339 338 337 337 338 337 335 329 326 322 328 337 339 340 340 339 339 339 339 340 339 341 338 336 338 340 340 338 340 341 342 341 341 342 342 343 343 343 342 341 340 340 340 338 337 337 337 336 335 337 340 340 339 339 339 339 340 339 338
342 342 341 339 340 340 340 340 340 342 339 340 340 340 339 338 337 336 334 335 335 335 332 330 331 333 336 335 337 336 336 336 336 335 328 324 323 327 331 338 338 339 338 339 341 340 342 340 339 338 338 339 340 338 339 340 342 341 342 343 343 343 342 341 341 340 340 338 336 337 337 337 337 336 335 336 338 339 338 338 338 338 338 339 339
341 342 341 341 340 341 341 341 341 340 339 339 339 339 339 338 337 336 336 335 334 334 332 332 334 335 338 338 334 334 334 333 331 331 331 329 324 326 330 329 329 334 337 336 339 343 341 340 337 339 340 341 340 339 339 341 341 342 341 342 342 342 341 341 340 339 338 336 337 337 336 336 336 335 335 334 336 338 339 338 338 338 338 339 339
341 341 341 341 341 341 340 340 340 341 340 339 338 339 339 338 337 336 335 334 333 333 333 334 334 338 339 338 335 334 331 330 329 330 330 327 326 326 329 331 331 329 333 336 338 341 341 342 341 339 340 340 340 341 340 340 339 339 337 339 342 341 341 340 339 338 337 336 337 336 336 336 335 335 335 335 337 338 337 337 337 338 338 339 338
341 340 340 341 341 339 338 338 339 340 340 340 340 340 340 338 338 336 336 339 339 339 339 339 339 339 339 338 337 336 334 333 336 335 332 330 330 328 326 331 331 330 334 335 339 339 339 339 340 341 340 339 338 339 341 341 338 336 337 338 339 340 340 339 338 336 335 336 336 335 335 335 335 335 334 334 336 336 336 336 336 337 338 338 338
339 339 340 341 341 340 340 340 340 340 340 340 341 340 340 338 338 338 337 337 337 337 336 337 339 338 337 339 339 337 336 338 338 336 336 335 332 327 329 332 328 327 331 333 333 337 339 339 341 342 341 339 340 339 341 339 337 336 336 334 336 339 340 338 337 335 334 334 334 333 333 333 333 334 334 334 335 335 335 334 335 337 337 338 338
339 340 341 341 341 341 341 341 339 340 340 339 339 340 338 337 339 339 338 339 339 337 336 337 338 339 340 338 338 337 337 340 338 336 336 333 330 329 327 326 329 328 331 331 335 333 335 339 340 342 342 340 339 341 338 337 337 334 334 335 334 336 338 337 336 334 333 333 333 332 331 331 332 332 332 333 333 335 336 336 336 337 337 338 336
339 341 342 341 341 341 341 340 340 339 338 339 339 339 339 338 339 339 339 340 340 339 337 337 338 338 339 338 338 337 337 338 337 335 337 335 333 333 329 322 324 327 326 330 331 334 332 336 339 340 341 341 339 339 337 337 336 333 334 335 335 332 334 337 336 334 333 331 331 331 331 330 331 332 332 332 331 331 334 336 337 337 338 337 336
341 341 341 341 340 340 340 341 339 339 339 339 340 340 339 338 338 338 338 341 340 339 337 337 337 338 338 339 338 336 337 337 336 336 338 338 337 336 333 327 323 320 325 323 326 329 336 333 337 341 339 337 337 339 337 336 336 332 334 335 334 331 331 334 335 335 333 332 331 331 331 330 331 332 330 330 330 329 331 334 336 336 336 336 336
342 342 341 340 340 340 339 339 337 337 339 339 338 338 338 339 338 338 338 340 340 339 339 338 338 338 338 338 338 337 338 338 338 339 338 338 337 336 336 328 326 324 320 321 324 326 330 335 331 336 337 337 337 340 338 337 335 334 336 335 335 334 326 327 331 334 335 332 332 332 332 333 332 331 330 329 329 329 329 332 335 335 335 335 335
343 342 342 340 340 341 339 338 338 338 338 338 337 337 338 337 337 338 339 340 339 337 338 338 336 338 338 338 339 337 339 339 338 337 337 339 338 336 336 335 332 326 325 322 323 330 330 336 334 332 335 336 338 340 339 337 333 335 337 334 333 329 321 324 326 328 329 331 333 333 333 334 333 332 331 329 327 326 326 326 329 331 332 333 332
343 342 341 340 339 339 339 337 338 339 338 337 337 336 337 335 336 337 339 339 336 335 336 336 334 335 336 337 338 338 339 338 338 338 338 338 337 337 336 336 333 332 327 328 322 327 335 327 336 338 335 336 338 337 337 337 334 335 336 333 329 322 321 320 320 319 320 319 321 323 327 331 332 330 328 326 324 323 322 322 322 325 326 324 325
342 342 341 340 339 339 338 338 339 338 337 337 336 335 335 334 335 336 338 338 336 334 334 336 334 335 337 336 337 337 338 337 337 337 337 337 336 336 337 335 334 334 333 327 324 324 332 331 335 338 336 334 334 333 334 336 335 329 336 328 321 320 321 318 316 316 316 317 317 318 319 324 325 324 322 320 319 318 318 317 316 316 319 321 323
342 342 341 340 338 339 338 338 337 337 336 337 336 333 333 334 336 336 337 336 334 333 334 333 334 335 337 336 336 337 337 336 336 337 336 337 337 338 338 336 332 333 332 329 326 326 333 338 333 333 334 333 332 332 332 333 334 334 329 323 322 324 323 320 317 313 313 314 313 312 312 313 316 316 316 315 311 311 312 311 310 312 316 320 322
341 339 340 340 339 339 338 337 337 336 337 336 336 334 334 334 335 337 336 335 334 333 335 333 334 336 337 336 335 335 336 336 336 334 335 336 336 336 336 334 332 330 332 329 329 327 325 332 333 337 335 333 329 331 330 332 332 334 328 324 326 328 326 323 318 313 311 311 312 311 310 310 310 311 313 313 310 308 308 309 310 311 312 315 316
339 339 339 340 338 338 337 337 337 337 336 336 337 336 335 335 334 335 336 336 335 334 335 335 335 336 336 335 334 335 338 336 336 335 336 336 336 336 335 334 333 332 333 333 332 329 327 329 334 332 332 331 330 328 329 333 334 334 329 326 328 332 330 325 322 315 310 311 310 310 309 309 309 309 310 311 310 310 310 309 308 307 307 308 310
335 337 341 341 338 338 337 336 336 336 336 337 337 337 336 335 334 335 335 335 335 335 334 333 334 336 334 333 334 336 338 335 335 335 336 337 335 334 333 335 332 331 334 334 332 332 331 329 330 330 332 330 331 330 329 330 333 332 329 329 332 333 332 328 322 314 310 310 310 310 309 308 308 309 309 310 311 310 310 309 308 307 307 307 308
333 335 337 339 339 338 338 337 336 336 336 336 336 336 335 335 335 335 335 334 335 333 332 333 335 334 335 335 336 336 336 335 335 335 335 334 334 334 334 334 333 332 333 334 331 332 332 329 330 334 335 333 332 329 328 328 329 329 329 329 331 330 329 327 323 315 310 310 310 310 309 309 308 308 309 310 311 311 309 309 308 308 307 307 308
334 335 335 337 338 337 337 335 336 336 336 337 336 336 335 336 335 335 336 334 334 333 332 334 334 336 335 335 337 335 336 335 335 335 335 334 335 335 333 333 333 332 331 332 331 331 331 329 330 330 329 330 334 334 329 328 326 327 327 330 330 329 327 323 319 315 314 312 311 310 309 309 308 308 309 310 311 310 309 309 309 308 308 307 308
335 335 333 335 337 338 337 337 336 336 336 337 336 336 336 336 336 336 335 334 334 334 335 336 337 337 336 337 337 336 337 336 337 337 336 335 336 334 333 333 333 330 330 330 331 331 329 329 329 329 328 332 331 330 329 331 331 326 324 324 322 327 325 322 320 319 318 318 315 313 313 313 310 309 307 309 310 310 310 310 309 309 309 307 307
334 333 333 334 336 336 336 337 336 336 336 336 336 336 337 336 336 336 334 333 333 334 336 336 337 336 335 336 336 337 337 338 338 338 337 336 336 333 335 335 333 330 329 330 330 330 329 328 329 325 326 329 331 334 332 330 328 325 326 323 320 324 324 323 321 318 321 322 318 317 315 313 312 311 309 309 310 311 311 311 311 311 310 309 309
332 332 334 332 333 335 336 338 334 334 335 335 336 336 336 336 337 335 334 334 334 335 335 335 337 336 335 337 337 337 339 341 341 340 340 340 338 335 336 335 332 328 328 328 329 329 329 330 328 327 325 327 329 328 327 325 324 324 325 324 323 325 324 326 323 323 325 323 323 321 318 316 315 314 315 316 316 311 311 313 312 312 310 310 308
332 333 333 334 332 332 334 334 335 336 337 339 336 329 329 336 336 336 335 335 336 336 335 336 336 335 336 337 338 341 342 343 340 332 326 329 336 339 338 334 331 328 327 328 329 327 327 327 327 327 325 324 327 328 327 327 329 330 326 327 322 325 322 323 326 325 327 325 322 320 322 323 321 319 319 322 320 322 316 313 311 312 309 308 307
331 333 333 332 331 332 331 331 333 333 333 332 314 310 313 321 335 335 334 335 336 336 336 335 333 334 336 338 339 341 342 342 336 324 320 322 320 321 324 332 334 330 328 328 329 327 327 327 328 328 326 324 326 329 330 329 330 328 327 326 327 324 320 319 316 323 327 325 323 320 320 323 325 322 323 325 323 318 314 309 308 308 308 307 306
331 331 331 329 330 331 332 332 332 332 330 318 307 305 305 308 323 337 337 337 336 337 336 336 333 334 336 337 339 340 340 340 337 330 326 319 315 315 314 313 312 311 322 329 329 327 328 327 326 327 328 327 327 329 329 329 329 329 329 326 325 324 321 319 318 318 325 326 325 322 319 322 326 325 322 321 317 313 311 306 306 306 307 306 306
329 330 330 330 330 331 330 331 331 330 330 314 306 310 310 305 304 331 337 334 335 334 333 335 333 336 337 337 337 339 339 343 341 338 336 326 318 317 318 317 314 309 304 313 319 331 329 329 327 327 328 330 329 330 332 331 332 329 328 326 325 325 324 320 320 321 323 326 324 319 318 318 324 322 320 318 314 310 308 307 307 307 306 305 305
327 327 328 329 330 330 331 330 330 330 329 314 302 304 307 308 303 316 331 331 332 332 330 331 332 335 337 336 337 338 339 340 339 338 338 335 330 328 329 330 332 323 309 307 312 316 326 333 331 328 330 333 331 334 336 331 329 327 326 325 326 325 326 323 324 328 325 328 323 319 318 315 321 322 318 317 318 315 312 306 305 306 305 305 304
328 328 328 328 329 330 329 330 330 329 329 307 303 303 301 302 301 317 332 333 333 333 332 333 331 329 335 336 337 338 339 339 339 338 338 338 335 333 333 333 334 333 326 324 326 328 331 337 336 335 334 334 334 336 336 333 331 330 329 328 329 329 329 329 329 326 324 326 327 321 317 315 318 321 319 319 317 312 308 304 305 305 305 304 304
329 328 327 329 328 328 328 330 331 329 323 297 300 300 301 302 301 327 330 333 330 330 331 333 331 330 330 330 331 331 332 334 330 322 331 337 336 335 334 334 335 335 335 335 321 323 336 337 335 331 332 336 327 336 336 335 333 332 332 330 329 327 327 324 322 323 321 324 327 323 319 317 319 321 319 318 315 313 312 309 305 306 305 305 304
329 329 327 327 329 329 329 330 330 329 328 304 298 299 299 299 312 334 334 333 333 335 332 330 329 328 330 330 329 333 335 334 320 309 313 329 334 330 330 331 333 334 334 324 307 306 310 314 315 313 313 312 310 313 312 315 326 330 330 326 324 326 324 321 321 321 321 321 322 327 321 318 319 320 318 317 315 313 313 311 308 305 305 305 304
327 329 330 330 330 330 330 329 329 328 329 312 298 297 298 296 313 332 333 333 333 332 332 331 332 333 333 336 335 335 333 330 306 306 306 325 331 331 330 331 328 331 333 334 328 316 299 302 305 306 306 306 305 306 307 309 310 323 329 324 326 326 323 322 319 320 322 321 320 324 322 320 321 320 318 318 316 315 314 313 310 306 303 303 303
321 318 325 328 329 330 330 330 331 330 328 311 297 296 296 299 318 331 333 330 329 329 329 332 333 331 333 334 333 329 333 315 297 302 301 324 333 333 332 328 328 330 333 334 331 327 326 326 324 322 321 315 320 325 323 307 310 326 332 330 330 327 323 322 322 321 320 321 323 325 320 320 321 320 318 315 313 315 315 313 311 309 308 307 305
Wind_Speed
4 4 3 3 3 2 3 5 6 5 5 6 9 7 8 7 7 7 6 7 9 8 4 3 2 1 2 4 4 4 4 3 3 4 4 5 5 10 16 16 14 14 14 14 13 13 12 12 11 11 10 11 10 10 9 8 8 9 7 5 4 4 4 5 6 6 7 7 7 7 8 7 8 7 6 6 6 7 7 8 8 9 9 11 11
5 5 6 6 5 5 6 7 6 6 5 8 9 8 6 6 7 7 8 8 7 4 3 5 6 4 3 3 7 1 3 3 3 4 5 5 5 7 16 15 15 14 14 14 13 13 13 12 12 12 12 11 10 9 9 9 8 8 7 5 4 3 5 5 6 6 7 7 8 8 8 8 7 7 7 7 7 7 7 8 8 9 9 11 11
7 7 6 6 5 5 5 5 5 6 5 7 10 7 4 4 5 4 4 4 5 4 3 5 3 7 5 7 4 3 3 2 5 5 4 4 6 6 10 16 15 14 14 14 13 13 13 13 13 12 12 11 10 10 9 9 8 8 7 5 4 5 6 7 7 7 7 8 8 8 8 8 7 7 7 7 7 7 8 8 8 9 11 11 11
7 8 8 6 6 5 4 5 6 5 5 7 9 6 3 5 7 4 6 4 5 4 5 5 5 5 8 6 6 2 2 0 3 5 3 3 6 6 6 8 14 15 14 13 12 13 13 13 13 12 12 11 11 10 10 9 9 8 7 6 5 6 8 8 8 8 8 9 9 9 9 8 8 8 7 7 7 8 8 8 9 10 10 10 11
6 6 7 6 5 5 5 5 5 5 5 8 9 6 3 4 4 6 6 5 4 5 5 6 5 5 1 4 5 4 3 3 2 2 5 4 4 6 6 6 7 12 14 13 13 13 13 13 13 12 12 11 11 11 10 10 10 8 7 6 6 7 8 8 9 9 9 9 9 9 8 8 8 8 8 8 8 8 8 8 8 8 8 10 11
6 6 4 4 4 4 5 5 5 4 4 4 5 8 5 5 5 5 5 5 3 4 3 5 4 2 2 3 0 3 4 4 4 2 2 3 4 4 6 5 6 5 7 13 13 12 13 13 13 12 11 11 11 11 11 11 10 8 7 7 7 8 8 8 9 10 10 10 10 10 9 9 9 8 8 9 9 8 8 7 7 6 8 9 10
4 4 4 4 4 4 4 4 4 3 3 4 7 9 5 4 4 7 4 1 3 5 3 4 3 1 3 4 1 4 1 1 2 3 5 3 3 4 4 5 6 5 5 5 9 13 12 12 12 12 11 11 11 12 11 10 9 8 8 8 8 8 9 9 10 11 11 11 11 10 9 9 9 9 9 9 9 8 7 6 5 5 10 10 7
7 7 6 5 5 5 5 3 3 3 4 4 6 7 4 4 5 2 1 3 3 6 3 3 3 3 2 2 2 1 1 1 2 3 3 3 4 3 2 2 5 5 6 4 5 8 14 13 12 12 11 11 12 12 11 10 10 9 10 10 9 9 10 10 10 11 11 11 11 10 10 9 9 9 9 9 9 9 9 7 5 4 6 7 7
9 9 7 6 6 5 4 5 3 4 3 4 5 6 4 5 3 2 3 3 6 8 5 4 2 2 1 1 3 1 2 3 3 3 2 4 4 3 3 4 3 6 5 4 5 5 11 14 12 12 11 12 11 12 12 11 11 10 10 10 10 10 10 9 9 10 10 10 10 9 9 9 10 9 9 9 9 9 9 7 6 7 7 7 7
8 8 7 6 6 6 5 5 5 4 4 3 4 4 5 4 3 4 5 5 5 6 3 3 3 1 0 2 2 1 3 3 1 2 4 3 6 4 4 3 3 3 4 4 4 5 6 11 14 13 12 12 12 13 12 12 11 11 10 11 11 11 11 10 9 5 4 6 7 8 8 8 9 9 9 9 9 9 9 8 7 5 4 6 4
8 8 7 7 7 6 5 6 5 4 3 3 4 3 3 2 4 4 3 2 3 2 0 5 3 2 2 2 1 3 2 2 3 3 3 4 5 5 4 2 3 3 4 5 5 4 5 6 6 6 7 14 12 13 13 13 11 11 11 11 10 10 10 10 8 7 7 7 7 8 8 8 9 9 9 10 9 8 8 8 8 5 3 5 3
8 7 6 6 6 7 8 7 6 5 5 4 5 5 5 2 3 3 4 4 5 1 3 2 2 2 2 2 3 3 4 3 2 3 3 1 3 3 5 4 4 4 6 5 5 5 4 6 6 6 6 10 15 12 13 13 12 11 12 11 10 10 10 10 9 8 8 8 8 8 8 9 9 9 10 9 8 8 8 9 9 6 4 2 1
7 8 6 6 6 5 6 5 6 6 7 7 6 5 3 1 2 1 1 2 4 2 1 1 3 2 1 2 2 3 3 3 3 3 3 2 2 4 4 4 4 5 6 5 5 5 4 5 6 5 6 6 10 14 13 12 12 12 13 12 11 10 9 9 8 7 8 8 8 8 7 8 8 9 9 9 9 8 8 8 7 7 4 3 2
5 8 7 7 6 4 5 6 6 7 6 5 5 4 3 4 3 1 2 3 3 4 1 3 3 4 3 2 3 2 3 3 4 4 5 4 4 3 4 5 6 5 5 4 4 4 4 4 5 5 2 2 5 5 7 7 8 11 12 13 12 11 9 5 2 6 10 9 5 3 6 7 8 7 7 7 7 7 7 7 6 4 3 2 4
10 9 10 9 6 5 4 5 7 6 6 6 6 6 5 6 5 4 4 4 4 2 2 7 4 4 1 1 3 4 3 3 4 4 5 4 4 3 3 1 8 7 2 2 3 4 3 2 3 2 3 1 2 5 6 6 7 11 12 12 11 10 8 6 7 10 11 7 6 5 5 6 6 4 4 5 4 4 4 5 4 4 3 4 5
9 11 9 11 11 8 6 6 7 7 6 6 6 6 6 5 5 5 2 2 1 2 0 5 2 2 3 4 2 2 2 6 5 4 5 5 3 1 3 5 3 2 3 3 1 6 6 3 3 1 1 1 1 2 5 4 6 12 13 13 11 9 8 7 8 7 6 4 3 3 3 3 3 3 4 3 5 5 5 4 3 3 4 5 6
8 10 9 10 10 11 12 10 10 8 6 6 7 6 5 5 5 5 5 4 3 2 3 3 6 6 0 2 2 1 3 1 3 1 1 1 1 2 2 0 4 3 3 1 5 4 3 2 1 1 2 3 2 2 2 2 1 3 7 10 10 8 6 6 6 6 4 1 2 1 1 3 4 5 5 5 4 4 4 4 5 4 4 5 7
8 8 8 8 8 9 10 10 10 9 9 7 6 5 6 5 5 4 4 3 3 2 4 4 7 8 5 0 1 0 2 1 0 2 2 0 2 0 1 1 6 2 5 2 6 2 2 5 4 3 4 2 4 2 2 2 2 2 4 6 9 7 7 6 6 3 2 3 3 3 4 4 5 4 4 4 4 5 5 5 5 4 4 5 6
9 10 9 8 7 7 8 8 7 7 7 7 7 7 6 6 5 5 5 5 5 4 5 5 4 8 6 2 1 1 1 1 1 1 1 1 2 1 1 2 4 6 3 2 5 7 6 7 5 4 4 2 2 3 1 2 2 2 5 9 8 8 7 6 6 7 6 5 4 3 4 4 4 4 4 4 5 5 6 5 4 4 4 5 6
9 9 9 7 7 8 8 8 7 6 7 7 7 6 5 5 6 6 5 5 6 6 4 4 6 6 4 4 3 3 2 2 0 1 2 1 1 1 2 2 3 4 2 1 1 3 5 5 7 4 4 2 3 2 2 2 3 4 5 9 8 8 8 8 9 8 7 6 5 4 4 4 5 5 4 5 5 5 4 4 3 3 4 5 7
9 9 9 9 9 9 10 9 8 7 7 7 6 6 7 7 7 6 7 7 6 6 6 5 9 7 4 2 2 2 2 1 1 1 1 2 2 2 1 2 2 2 3 4 3 3 3 7 6 7 4 3 4 3 2 1 4 4 5 9 10 11 11 10 9 8 8 6 5 5 5 5 5 5 5 5 6 5 5 4 3 2 4 5 8
9 10 9 10 10 9 9 9 9 9 8 8 8 8 7 6 6 6 6 6 7 6 7 7 8 7 4 2 3 3 2 2 1 2 1 1 1 1 1 1 0 1 1 3 0 4 4 6 7 8 4 3 4 4 3 3 4 5 7 11 12 11 11 10 10 9 8 7 6 6 5 5 5 5 5 6 6 7 8 6 4 3 4 5 11
8 8 10 10 9 8 8 7 7 8 8 9 9 8 7 7 7 8 8 8 6 7 8 9 10 7 3 4 4 4 4 3 5 5 3 2 3 2 0 1 1 2 1 1 1 3 4 4 4 5 5 3 3 4 3 3 4 8 11 10 11 12 12 11 11 10 9 8 7 6 6 7 6 6 6 5 6 8 9 8 6 4 4 6 12
9 8 9 10 9 9 10 9 9 9 9 8 8 8 8 8 7 8 8 7 6 8 8 8 7 5 4 4 4 3 3 2 1 3 5 3 3 2 2 1 1 1 1 1 1 2 2 3 4 4 4 4 2 2 3 3 7 13 8 9 10 12 12 12 11 10 9 8 7 8 8 8 9 8 8 8 8 8 8 7 7 5 4 7 15
9 10 10 11 9 9 10 9 9 9 9 9 8 9 9 8 8 8 8 8 7 8 6 6 6 6 5 5 4 4 4 4 3 3 3 3 4 2 1 1 1 2 2 2 1 1 1 2 4 5 4 4 4 3 3 6 6 8 9 7 10 10 11 12 11 10 10 9 9 9 9 9 9 9 9 9 9 9 8 6 6 6 5 10 17
10 10 10 11 9 9 9 9 9 8 8 9 9 8 8 7 7 8 9 8 7 8 7 6 6 6 5 5 5 5 4 4 4 3 4 4 4 4 4 1 1 1 1 2 2 2 0 1 4 4 5 4 4 4 6 6 6 9 10 7 8 10 11 11 11 11 10 10 9 9 9 9 10 10 10 11 11 11 11 9 6 7 9 13 16
9 8 10 10 11 9 9 9 10 9 9 9 9 9 8 8 8 9 8 7 7 7 7 7 7 6 5 5 4 4 4 3 4 4 4 4 4 4 6 5 2 1 1 1 1 2 1 4 5 5 4 4 4 6 7 6 8 10 9 6 5 9 10 11 11 11 11 10 9 9 9 9 9 10 11 11 11 11 12 13 11 10 14 17 16
8 8 9 10 10 10 10 9 10 8 9 9 9 7 7 8 8 7 8 6 7 8 7 7 7 6 6 4 3 4 5 5 4 5 5 4 4 3 6 7 4 3 1 1 1 3 2 4 4 5 5 5 5 5 9 9 7 10 10 5 5 5 9 10 10 10 10 10 9 8 9 9 10 10 10 11 11 12 12 12 12 11 12 14 15
7 7 9 9 8 9 9 9 10 9 9 8 9 8 8 8 7 8 8 7 6 6 6 7 6 6 5 6 5 5 4 4 5 5 4 4 4 4 4 6 5 3 5 4 4 4 3 2 4 3 5 6 5 7 8 7 9 9 6 6 5 4 6 9 9 9 8 9 8 8 8 8 9 10 10 10 11 12 13 12 12 11 9 11 13
7 7 8 9 9 10 8 9 9 9 9 8 9 10 9 8 8 7 6 5 5 1 1 2 2 4 6 6 6 5 5 5 4 4 4 3 4 4 4 4 7 6 5 5 4 3 4 2 2 4 6 6 7 7 7 7 12 11 7 7 6 5 7 8 9 8 7 6 5 5 6 7 8 9 9 10 11 12 12 11 10 10 10 8 13
6 8 8 9 9 9 9 9 8 9 9 9 9 9 9 7 8 7 6 7 6 6 4 4 4 6 7 7 6 6 5 5 5 5 3 3 3 3 4 5 2 2 6 2 4 3 1 4 0 4 7 6 8 7 7 8 12 10 7 7 7 9 8 5 6 8 8 7 6 7 6 7 8 8 8 9 10 11 10 10 9 9 9 8 11
7 8 8 9 10 10 9 9 10 10 9 8 10 8 8 7 7 7 6 7 7 6 4 4 5 7 8 7 7 6 5 4 4 5 5 4 4 4 4 5 6 5 3 4 5 5 3 3 3 3 7 8 8 7 8 7 11 14 6 8 9 11 5 4 5 7 8 7 6 6 7 8 9 9 9 9 9 9 9 9 9 8 7 6 7
7 9 10 10 11 11 11 10 10 9 10 9 9 8 9 9 8 7 7 6 6 6 6 7 8 9 7 6 6 7 6 6 5 5 5 5 5 4 3 5 5 5 4 5 6 4 2 1 3 5 7 5 7 7 8 7 8 6 6 9 10 6 6 5 5 7 9 7 6 6 7 8 9 9 8 8 9 8 8 8 7 6 5 4 4
7 9 11 9 11 11 11 12 11 11 11 10 9 9 8 10 9 7 7 8 7 8 8 9 9 8 7 7 8 7 6 6 5 6 5 5 5 5 4 7 6 5 5 6 4 6 6 2 3 3 6 6 7 8 8 7 7 7 8 7 7 7 7 6 5 5 9 8 8 7 7 8 8 7 8 7 7 4 5 5 5 6 4 3 4
9 8 9 9 10 11 11 11 11 12 12 11 10 11 11 11 11 9 8 8 9 9 9 9 8 7 6 6 7 5 5 6 6 5 5 5 4 4 5 6 7 6 5 4 4 7 8 5 5 6 5 6 6 8 7 6 6 9 9 8 8 7 7 8 6 5 9 9 9 8 8 9 9 9 7 7 5 4 5 5 4 4 3 3 3
9 10 7 8 8 10 10 11 11 11 12 11 11 11 11 11 11 10 9 9 9 8 7 7 6 6 6 7 6 5 6 6 6 5 4 4 3 4 4 5 7 1 2 4 4 4 7 7 5 6 5 5 6 7 7 6 6 8 8 8 8 8 8 7 7 6 8 10 10 9 8 8 8 8 6 4 4 4 4 4 5 4 4 3 3
7 11 7 8 8 9 8 10 10 11 11 11 11 10 10 10 10 8 9 10 8 7 7 7 7 7 8 7 6 6 7 6 6 6 6 6 5 5 5 5 7 6 3 1 3 2 3 8 7 2 1 3 5 6 7 7 6 5 7 8 8 4 7 8 6 6 10 11 10 9 8 8 7 7 6 5 4 4 4 5 4 4 4 3 4
4 6 9 9 7 9 10 10 10 11 11 10 11 11 11 10 9 9 8 8 8 8 8 9 8 8 6 6 6 6 8 7 6 5 6 7 6 6 5 7 7 7 6 4 4 5 3 3 6 4 2 3 2 1 6 7 7 4 7 6 6 5 8 7 5 5 5 5 5 5 6 6 7 6 6 4 4 4 5 5 5 4 4 4 7
4 3 8 10 6 9 10 10 10 12 11 11 10 11 11 11 10 9 8 8 8 8 9 8 7 7 6 6 5 5 7 7 6 5 5 5 5 5 5 7 6 5 6 4 5 6 6 4 3 3 6 3 1 3 4 6 5 6 7 5 5 3 8 9 6 5 5 5 6 8 8 7 7 4 5 4 4 1 4 6 5 4 5 6 9
3 3 6 7 8 7 7 7 6 7 10 11 10 10 9 9 9 9 9 8 9 8 7 7 7 6 6 6 6 7 6 6 5 5 5 5 4 6 5 7 8 6 4 5 4 5 8 7 5 7 3 1 3 0 3 4 5 6 5 5 6 4 7 7 8 9 6 6 6 5 5 7 6 4 4 5 6 5 3 7 6 5 6 8 11
2 3 5 7 10 7 7 5 6 11 9 9 9 9 9 9 9 9 9 9 9 9 8 8 7 8 7 7 6 6 6 8 9 7 7 6 5 6 6 7 9 7 2 1 5 5 6 6 6 8 5 5 3 3 3 5 5 7 6 5 4 5 5 7 8 8 9 7 6 6 6 6 6 4 4 3 4 4 4 5 6 7 6 10 12
3 4 3 5 4 8 8 5 4 5 1 4 7 11 10 8 9 7 8 9 9 9 8 8 6 6 7 6 7 11 10 11 10 7 9 8 5 5 5 8 10 8 7 5 4 4 5 6 6 9 10 7 5 5 3 3 3 4 6 6 6 5 5 4 4 5 8 8 7 6 6 7 7 6 5 4 5 2 3 4 2 4 7 12 13
3 3 3 4 3 3 2 6 6 5 6 9 19 10 10 13 9 8 8 8 9 8 7 7 7 7 7 6 5 8 8 7 8 11 11 13 11 12 11 12 11 12 11 8 6 7 6 6 6 6 6 8 7 6 6 6 5 6 6 5 5 6 6 6 5 4 8 9 7 6 6 6 7 7 6 5 5 5 3 4 5 8 10 11 12
3 2 2 2 4 4 1 3 4 4 4 8 9 10 14 10 6 8 7 7 5 4 6 6 7 9 8 7 6 6 6 7 7 8 9 11 13 11 12 12 12 9 8 10 7 7 7 7 7 6 6 7 8 7 6 6 6 5 4 5 5 5 7 6 5 5 5 7 7 8 7 6 6 7 6 6 5 4 4 6 8 8 10 10 11
4 4 5 2 1 2 2 1 2 5 6 9 15 15 12 6 14 1 5 6 3 2 3 3 7 8 8 8 8 7 7 14 9 8 8 8 8 12 11 11 10 11 11 8 8 7 6 6 7 7 7 6 7 6 6 6 5 5 3 4 5 4 5 6 6 5 4 6 4 3 6 5 6 8 7 5 5 5 5 6 9 9 9 10 10
4 5 6 5 4 4 4 4 2 1 3 3 3 1 5 12 3 4 8 3 1 1 1 6 8 5 8 8 9 7 7 8 6 8 7 7 8 7 7 6 6 8 8 9 10 9 5 5 7 7 8 6 6 6 4 6 8 8 6 6 4 5 4 6 5 4 6 6 7 4 4 5 5 8 7 6 6 5 4 6 10 10 10 9 9
3 3 4 3 2 3 5 3 3 3 4 7 3 1 4 6 13 2 5 8 6 2 5 4 3 11 6 3 7 7 8 7 6 6 7 8 8 7 6 7 7 9 8 7 5 5 4 4 5 5 7 6 6 4 5 6 8 7 8 7 5 2 2 1 3 3 5 5 5 4 5 6 3 7 6 7 6 6 4 3 9 11 11 10 9
5 5 5 2 4 5 4 3 2 2 3 7 9 9 7 1 3 9 5 4 6 8 6 2 5 1 7 10 7 7 7 6 6 4 3 6 6 5 7 7 7 7 8 9 14 9 6 4 5 6 5 4 7 8 7 7 6 5 3 1 2 0 1 3 4 2 4 5 3 4 3 5 5 9 7 6 7 6 5 3 5 10 10 10 10
6 6 7 6 6 6 7 5 3 4 3 3 6 6 6 4 2 0 2 1 3 4 7 4 3 2 2 4 4 2 7 7 9 9 1 4 4 4 2 4 4 5 5 4 5 7 7 9 11 12 11 10 9 12 13 14 10 8 6 4 6 4 4 5 4 5 5 5 4 4 3 2 5 7 7 6 6 6 6 5 4 6 9 9 9
4 6 6 6 4 4 4 3 2 4 3 4 8 8 7 5 4 3 2 1 2 4 5 3 2 3 4 9 9 6 4 6 11 12 9 10 7 3 4 2 3 5 5 6 5 4 7 6 3 9 13 15 13 13 13 14 14 11 10 10 8 5 6 6 5 6 4 6 6 6 3 2 7 7 7 5 5 4 5 5 5 4 6 5 7
2 6 6 6 5 4 3 4 7 5 5 4 7 9 8 6 3 2 2 2 2 3 3 6 5 5 4 7 8 7 5 9 10 7 7 7 8 9 7 4 5 5 6 6 6 6 5 4 2 1 1 4 6 6 8 12 14 13 10 9 8 8 8 7 6 4 5 5 7 7 5 4 8 7 8 6 3 3 4 6 7 6 5 5 4
Wind_Direction
180 171 180 190 193 166 163 219 236 235 215 253 249 225 191 201 223 218 202 218 229 232 254 178 224 186 267 177 180 209 162 200 117 107 129 133 154 171 173 177 181 186 191 191 193 193 197 198 202 207 216 208 210 209 214 223 237 245 237 237 253 264 281 287 289 288 287 290 299 315 322 325 328 328 321 317 318 324 326 325 326 327 327 327 324
177 171 181 191 175 183 190 204 208 222 217 239 248 245 189 197 220 222 211 216 233 227 221 252 174 187 208 251 182 182 131 182 132 108 149 147 156 170 179 179 183 190 194 195 195 199 198 201 204 207 209 219 224 214 211 220 229 239 244 230 250 265 271 278 275 277 281 286 296 301 311 321 323 319 316 316 319 320 319 318 319 318 318 318 319
166 170 192 197 167 188 199 200 214 220 221 247 255 254 182 204 234 212 240 224 231 237 185 249 197 184 171 232 127 115 208 199 123 150 163 157 141 160 184 181 186 193 194 199 200 202 206 204 207 209 209 212 224 223 218 220 224 234 249 246 235 250 263 265 269 275 279 285 291 298 302 309 310 309 312 313 312 310 308 308 311 317 318 323 331
188 175 184 191 176 185 197 199 216 231 230 248 265 257 216 205 235 220 244 226 229 246 175 250 262 190 181 202 126 171 178 81 106 151 159 163 141 164 169 185 191 191 195 202 202 207 210 211 210 213 211 211 220 225 225 227 227 231 234 237 231 245 255 262 270 274 278 280 287 295 297 300 302 303 305 304 302 299 300 308 318 325 329 342 332
189 201 185 182 170 166 189 210 223 224 234 255 276 282 242 226 223 225 225 246 223 237 201 199 250 261 209 157 141 165 165 118 106 148 167 160 159 159 164 177 187 193 197 200 203 209 212 215 215 214 212 212 217 221 223 228 231 232 234 243 237 244 251 259 265 271 274 278 279 284 296 297 294 293 293 292 291 294 301 309 321 327 334 329 319
184 193 191 173 168 178 191 206 223 223 250 268 280 276 234 225 226 230 220 242 275 232 240 191 222 299 57 19 353 175 146 153 149 138 151 151 168 159 161 171 171 183 198 203 204 209 212 216 217 218 215 212 214 219 220 224 229 227 231 235 240 242 248 255 260 264 267 269 270 273 278 284 285 285 284 284 287 294 303 309 327 327 316 304 305
191 184 183 182 186 189 201 208 208 232 252 260 262 262 246 247 207 225 203 175 295 284 263 274 197 178 62 60 8 66 85 150 159 166 169 163 145 172 170 169 159 174 190 184 203 208 212 216 218 220 215 212 216 219 224 233 235 227 224 229 236 241 246 251 254 257 258 260 263 267 270 275 277 277 278 285 296 303 303 325 299 328 320 330 340
181 179 185 181 183 196 202 214 207 211 236 260 279 274 228 249 245 215 192 173 238 259 251 241 51 74 59 77 62 153 153 104 162 223 156 140 153 153 154 187 156 166 187 174 180 201 208 214 218 219 215 213 217 222 224 230 233 229 224 228 235 243 245 244 242 246 249 252 257 262 265 269 271 271 277 290 299 302 310 315 314 260 293 312 323
179 178 171 179 181 181 200 210 218 218 228 246 263 276 283 249 237 187 234 199 208 239 232 97 102 55 89 204 156 248 157 200 221 204 214 148 154 174 173 188 187 185 176 177 166 180 200 209 212 216 214 215 215 222 224 225 226 229 230 231 238 241 246 251 248 244 239 245 253 259 262 264 264 272 284 290 295 300 303 308 325 311 312 311 333
181 176 168 174 178 179 182 199 209 216 223 254 269 296 291 299 248 198 215 221 218 241 201 134 117 126 124 241 161 247 200 187 260 240 209 195 141 166 187 188 170 195 175 191 184 173 179 200 206 212 215 216 216 221 226 228 228 228 232 236 238 241 246 253 258 258 263 271 273 275 275 274 277 280 284 288 293 300 307 314 315 302 307 323 34
181 176 162 176 178 176 180 193 194 199 218 232 258 275 324 344 341 343 337 305 257 309 219 128 133 142 215 250 183 222 265 198 197 230 227 223 150 171 164 176 175 199 206 190 195 185 172 170 186 201 213 218 216 218 221 224 227 231 233 238 240 244 252 262 275 283 277 275 278 278 278 279 282 286 288 292 299 310 315 312 306 319 311 340 2
182 172 168 178 186 187 185 190 189 185 197 206 226 233 248 263 310 339 343 328 304 30 332 86 100 153 226 211 227 231 231 217 194 245 247 264 134 135 175 167 188 210 213 200 192 197 181 155 174 193 206 208 213 213 213 215 216 223 230 236 240 244 250 255 259 265 273 281 282 282 283 284 286 287 289 296 303 306 303 309 312 321 341 280 180
168 171 172 198 208 205 188 190 189 196 193 206 207 220 223 174 237 228 309 317 297 272 245 245 146 189 244 234 253 253 253 247 218 231 259 226 194 182 175 164 191 202 217 202 184 190 185 156 171 187 207 188 200 205 205 210 213 215 221 226 232 239 247 259 279 289 278 273 275 282 296 300 296 296 304 301 298 301 310 309 314 331 330 6 95
170 175 182 196 195 200 209 200 202 205 201 192 195 195 187 199 210 197 238 241 259 257 195 261 193 190 183 228 247 226 233 247 241 224 224 219 210 176 142 181 182 206 225 201 181 182 178 172 175 196 161 114 167 179 195 205 213 215 218 223 226 232 239 258 277 296 292 278 281 291 293 294 297 300 302 305 309 308 306 306 305 321 355 55 112
170 194 179 185 196 202 216 214 208 203 198 195 200 196 192 186 186 177 219 224 250 283 245 243 212 184 122 81 227 212 216 253 244 233 225 224 223 186 175 179 187 208 215 234 163 150 38 4 33 21 72 121 150 157 176 190 204 206 214 220 222 226 232 229 230 237 256 278 282 293 307 300 299 309 301 324 330 324 314 310 328 11 60 90 116
177 190 180 179 174 179 204 236 228 205 191 192 199 201 188 189 187 191 215 242 357 302 120 309 329 186 164 206 195 206 196 226 209 214 214 213 205 221 157 191 99 69 334 310 64 52 45 78 249 8 3 198 125 141 177 181 189 198 200 210 212 215 225 225 240 254 262 282 325 306 295 307 347 8 21 28 30 4 346 357 30 66 96 119 125
189 186 185 183 179 171 188 201 208 201 194 197 198 200 192 185 184 185 188 188 223 285 302 241 294 255 164 166 183 213 233 70 207 217 31 358 212 174 169 106 83 181 165 27 61 96 150 214 163 167 203 227 176 168 169 164 144 184 189 196 200 204 210 220 231 248 248 227 260 224 39 42 47 36 32 38 35 18 26 58 71 79 102 122 130
195 193 194 180 180 188 186 192 189 192 192 191 185 180 184 176 176 171 184 175 163 216 290 282 241 259 241 321 30 221 138 256 336 230 355 269 277 200 94 357 114 71 75 116 113 163 73 65 325 259 235 201 141 191 132 115 109 89 130 169 183 184 193 201 215 209 165 154 112 64 55 49 34 32 26 37 62 44 62 64 66 76 98 116 127
191 194 195 182 177 177 190 198 196 190 187 185 182 190 185 169 159 166 183 172 167 197 226 234 281 269 245 180 149 182 173 113 136 97 359 287 240 72 51 86 92 105 132 137 122 135 175 149 199 229 248 188 120 134 105 135 163 139 146 143 163 174 180 177 154 138 137 103 84 76 55 44 43 38 39 44 80 66 62 68 68 74 95 115 126
191 197 188 172 176 185 191 194 199 190 190 191 187 184 178 163 166 172 176 187 169 191 222 250 223 228 203 167 190 188 199 240 66 135 118 99 316 152 151 137 101 89 128 113 114 138 158 127 119 174 236 155 135 122 159 174 139 109 116 141 158 165 153 137 126 115 110 111 98 79 57 53 44 42 40 44 83 91 72 62 55 67 90 116 127
189 193 190 187 186 190 192 191 195 183 197 188 186 187 188 170 172 179 196 196 181 176 193 218 233 235 182 197 169 172 157 184 175 145 174 147 252 206 131 75 111 133 121 89 116 163 138 133 150 165 214 146 133 152 160 126 129 116 130 146 143 138 132 124 117 113 105 106 96 74 60 48 51 53 60 57 56 88 79 60 51 89 92 109 127
192 189 191 190 189 187 188 192 191 181 196 188 189 190 186 179 179 190 201 190 195 187 191 205 242 232 208 171 174 155 162 134 150 179 261 266 252 22 115 225 203 352 70 86 165 104 131 118 148 160 172 127 117 137 135 156 133 130 138 141 137 130 123 121 117 112 108 94 80 76 67 72 63 57 60 67 57 59 71 54 56 101 96 123 139
192 190 192 193 189 172 177 186 198 199 183 186 185 183 176 176 179 181 193 195 184 192 203 198 215 230 195 180 192 180 181 180 160 180 179 168 187 221 225 210 196 177 87 118 57 106 122 145 134 129 127 122 115 131 149 163 148 124 131 131 131 128 127 122 117 111 100 90 89 84 80 71 68 62 55 49 43 43 43 43 39 70 103 115 138
186 188 192 195 186 180 182 187 186 192 188 189 185 180 177 178 181 185 195 199 189 194 203 204 203 213 200 192 203 186 189 207 139 157 170 186 163 138 165 93 25 348 69 356 61 125 152 142 135 124 119 119 138 146 163 129 116 126 130 132 131 131 128 124 120 111 108 107 97 86 78 71 65 61 55 48 41 43 41 38 42 62 92 125 141
185 186 189 194 194 183 182 183 182 187 188 188 191 183 172 175 184 187 192 195 196 193 201 213 206 206 199 192 190 190 193 182 166 165 167 131 138 129 133 138 145 223 170 156 168 145 151 150 138 129 126 138 144 172 126 118 128 140 132 135 134 132 132 129 124 121 116 108 98 90 83 75 71 65 59 54 48 47 46 40 42 64 90 123 138
184 190 185 188 191 179 179 182 182 183 184 186 192 193 167 183 194 189 192 197 194 192 200 216 223 211 195 194 195 195 199 171 163 166 184 158 164 161 124 42 292 246 71 137 196 160 111 160 114 132 134 151 164 143 124 138 141 146 138 134 137 136 136 135 131 126 119 111 105 97 88 81 74 68 61 56 53 45 37 39 53 89 111 125 130
189 181 181 187 191 188 178 176 182 182 187 188 189 188 175 186 199 198 194 189 193 188 198 212 221 203 202 198 189 185 203 182 158 185 203 189 169 161 140 140 220 267 113 82 289 267 157 137 155 138 146 152 177 150 144 151 149 148 133 135 137 142 139 141 137 131 124 120 113 107 96 86 75 66 60 56 52 51 44 43 58 97 121 126 130
186 177 182 188 190 187 181 175 176 178 184 185 184 176 172 186 196 193 196 192 196 194 196 211 221 209 205 194 192 203 191 189 178 203 213 174 159 129 129 159 166 159 133 220 198 233 241 164 155 137 166 160 183 166 143 142 147 149 142 132 133 140 144 141 141 134 129 126 122 113 100 88 74 64 58 52 50 50 52 51 61 99 122 130 135
182 180 178 183 188 190 183 166 175 184 183 181 182 179 187 189 190 194 197 195 198 205 198 208 211 205 198 200 204 201 195 177 198 198 208 177 165 157 153 150 192 185 167 191 188 199 204 216 134 151 172 171 182 148 138 151 156 162 147 135 142 130 139 137 137 133 130 130 127 116 106 91 78 69 59 53 48 47 49 54 60 69 109 129 134
182 176 180 180 185 193 182 166 174 186 183 174 173 180 186 188 191 195 197 186 187 154 201 138 233 225 206 200 202 210 199 188 178 188 194 176 160 158 152 148 165 176 174 176 179 195 162 218 137 141 176 193 164 144 146 152 167 179 142 144 137 131 126 123 118 105 94 93 99 112 112 97 83 72 62 56 52 51 47 50 55 57 50 97 115
183 172 180 186 188 190 190 174 182 186 183 177 171 180 181 182 188 192 186 177 171 182 194 184 218 235 223 209 202 209 199 174 168 173 168 182 154 168 165 149 143 241 174 157 156 226 123 174 243 139 172 170 151 154 150 148 176 191 149 137 126 129 121 98 105 95 90 84 80 72 75 93 84 72 62 54 54 52 48 44 51 51 58 56 122
186 174 185 193 189 189 190 178 178 183 186 180 176 170 176 189 191 187 186 183 176 168 178 188 221 234 226 218 210 203 185 161 170 182 177 173 177 178 186 140 162 207 190 160 174 183 146 180 162 138 164 165 162 150 137 153 174 200 115 123 131 132 120 123 104 101 97 91 83 73 71 82 82 76 65 59 54 53 50 48 46 48 45 55 127
194 182 186 199 191 191 187 184 178 185 189 182 177 174 183 192 190 187 186 178 168 170 183 198 215 225 214 211 218 199 179 175 182 180 179 176 173 174 150 108 147 194 154 162 158 135 99 200 153 164 189 170 137 129 138 154 169 176 115 130 142 147 143 145 130 123 123 121 109 94 84 82 86 80 75 67 61 57 56 55 51 47 49 53 104
219 200 185 197 200 188 189 190 183 183 191 185 179 187 187 188 185 185 194 183 181 182 193 198 209 214 201 206 221 198 182 170 184 184 181 185 175 173 157 124 169 179 173 179 171 148 173 151 169 157 197 168 133 143 150 157 161 144 134 143 159 162 162 155 141 139 142 142 131 115 105 99 91 82 80 77 71 63 59 56 58 63 56 41 68
254 230 197 187 203 194 188 182 189 184 190 193 184 186 189 188 186 188 190 189 189 192 194 197 200 199 189 210 220 191 161 176 188 189 175 187 171 165 135 158 166 166 179 217 167 155 160 162 155 171 189 161 145 154 151 166 148 141 145 156 175 186 172 158 140 123 150 148 141 137 131 122 111 107 98 84 73 65 57 61 61 58 62 42 69
264 257 220 180 182 203 193 185 183 181 186 188 185 189 189 189 193 185 181 189 192 194 186 184 202 206 198 208 216 177 161 179 185 178 174 169 153 147 146 129 114 179 189 189 210 193 153 145 180 176 189 145 146 146 149 176 157 153 158 164 186 201 165 145 131 132 156 153 147 142 139 132 126 122 120 98 79 63 67 69 69 76 74 67 86
266 279 256 197 184 200 189 185 187 184 190 188 186 185 187 188 189 183 187 192 191 188 182 194 197 201 211 203 197 179 175 184 185 180 173 172 168 162 167 122 131 166 131 199 113 326 174 155 168 194 69 155 156 157 159 163 165 165 142 170 193 180 119 134 116 104 135 149 143 147 148 145 143 144 137 134 110 97 91 80 78 94 113 122 119
200 266 279 240 192 204 194 188 184 182 182 179 184 185 183 184 187 186 182 179 182 182 194 206 198 196 203 202 205 190 176 184 186 180 171 173 180 167 144 133 151 147 147 159 159 139 45 104 159 104 32 258 115 129 157 153 162 130 148 181 187 147 134 116 114 136 156 169 155 151 157 158 168 167 159 168 170 129 109 87 81 100 128 146 136
146 151 266 283 234 206 196 193 183 182 180 178 188 188 186 187 186 181 175 178 186 190 200 201 188 186 197 206 205 212 177 187 183 173 167 172 189 144 156 154 144 137 128 145 169 134 150 182 150 106 159 248 200 153 159 158 149 141 159 166 203 157 140 137 136 161 169 167 160 169 173 167 155 166 196 223 244 198 88 90 79 100 141 154 143
204 194 235 259 253 229 215 192 170 196 182 181 188 190 187 185 186 179 178 181 187 196 195 197 184 183 192 210 206 215 191 178 181 160 167 170 154 149 176 138 126 123 148 141 143 135 151 177 168 134 244 188 175 21 161 164 125 142 165 169 187 165 147 148 159 162 162 146 147 161 142 127 152 132 170 250 254 232 140 72 64 91 139 152 143
218 268 278 279 290 269 236 212 199 209 201 188 186 183 185 190 185 180 182 183 189 191 193 197 186 182 190 198 203 207 186 180 170 176 169 164 147 158 155 130 117 127 153 146 133 151 155 162 131 118 168 229 184 176 175 169 166 167 174 176 189 166 165 150 173 160 155 161 160 147 171 163 156 167 165 193 201 213 206 105 78 79 130 143 139
144 191 193 233 285 319 319 301 341 337 279 172 183 181 180 187 178 181 184 190 188 186 188 190 180 182 197 187 190 205 195 183 171 142 145 161 132 133 155 119 132 145 160 206 160 153 140 148 148 152 169 189 183 183 190 186 168 153 170 181 192 158 159 178 183 154 173 159 150 166 186 180 158 161 176 173 162 187 73 53 31 91 126 135 134
186 163 156 188 142 138 1 9 3 8 351 7 360 315 198 181 184 185 190 193 186 192 190 184 175 186 198 182 165 180 177 166 160 142 130 117 110 101 99 119 146 162 164 183 181 139 166 166 160 161 175 173 194 190 191 181 179 177 187 188 174 151 171 165 190 180 180 160 158 152 183 189 164 155 176 144 130 105 91 89 109 112 123 130 135
144 94 73 10 24 351 158 160 143 123 73 57 42 12 326 283 230 187 190 185 171 184 189 180 184 191 187 167 160 164 167 166 153 144 133 119 111 106 103 99 93 81 144 167 183 172 160 160 164 174 178 185 190 193 195 177 185 181 188 186 194 166 177 177 180 191 206 163 154 154 184 199 169 134 116 97 81 83 98 124 116 120 126 132 135
139 113 107 93 276 196 113 276 171 159 152 177 183 156 146 54 316 284 59 33 81 50 318 252 225 186 171 161 163 174 173 173 161 153 145 123 115 117 112 106 104 107 98 147 193 187 139 145 170 171 191 177 185 208 201 174 158 168 173 190 209 202 189 193 199 184 190 163 145 141 161 193 141 126 117 106 114 121 111 123 127 127 131 134 137
141 125 130 171 196 156 128 137 190 243 164 134 122 316 217 155 140 323 88 77 322 111 270 284 279 224 173 164 158 167 165 164 171 156 157 143 142 137 139 141 142 124 125 150 187 198 164 167 166 183 185 189 188 190 164 146 158 174 171 198 196 209 208 209 213 170 179 158 166 152 142 202 154 121 119 131 128 110 98 136 139 136 137 139 141
110 110 114 156 174 138 127 151 201 152 125 139 133 139 320 278 127 173 144 172 173 139 218 191 331 324 317 156 162 166 150 153 167 159 147 158 154 159 157 166 166 159 157 166 196 196 179 183 171 172 170 183 195 178 167 183 182 184 183 183 177 176 251 179 52 116 158 169 151 134 173 205 144 118 130 133 119 106 109 148 151 145 145 146 148
125 138 185 151 170 153 174 223 183 162 102 118 121 126 137 162 199 150 217 197 146 192 194 108 85 338 314 338 5 42 27 33 4 106 131 133 145 145 176 175 176 169 169 174 178 189 189 190 176 179 186 190 184 186 178 181 173 156 137 51 10 304 292 226 145 180 163 210 171 154 160 191 149 127 134 126 124 123 137 134 169 153 151 152 155
142 147 150 155 172 167 179 195 168 93 92 84 100 109 108 99 336 167 163 167 194 132 126 123 151 147 285 101 290 143 160 157 166 169 113 89 91 127 223 209 165 159 148 104 115 142 174 202 197 195 176 207 204 178 178 180 176 158 137 146 219 207 194 211 174 166 201 183 220 194 149 153 135 129 134 141 138 138 145 148 163 158 156 156 156
144 152 133 129 130 124 135 163 113 104 113 114 103 98 97 78 44 44 48 35 43 51 77 91 156 188 208 163 161 175 160 123 164 174 160 131 140 156 206 132 182 184 157 140 142 114 93 72 284 234 199 200 198 182 178 183 178 162 163 189 197 188 209 194 192 179 185 179 207 191 135 189 129 137 131 122 103 127 137 150 155 141 137 143 156
54 69 110 128 123 121 120 123 141 140 125 115 120 118 121 125 100 78 76 66 51 86 154 181 181 173 185 87 94 111 116 108 124 151 173 174 151 155 146 157 223 202 175 155 161 154 158 153 157 165 134 182 189 185 198 194 181 183 189 187 183 194 200 196 193 172 186 203 207 172 160 182 135 166 140 134 145 116 137 152 160 168 166 161 163